User: anonymous   Login
Location: Unspecified
(0.0000°N, 0.0000°E)
Time: 21:11:24
(UTC+02:00)
Language:

Cosmos 773 Rocket - Orbit

View from above orbital plane
View from above orbital plane
View from above satellite
View from above satellite

Ground track
Ground track

The orbit data is extracted from the following two-line orbital elements,

1  8344U 75094B   17174.94046470 -.00000036 +00000-0 -31584-5 0  9995
2  8344 074.0572 113.1854 0021543 009.8278 350.3293 14.39092924186393
Epoch (UTC): 23 June 2017 22:34:16
Eccentricity: 0.0021543
inclination: 74.0572°
perigee height: 746 km
apogee height: 777 km
right ascension of ascending node: 113.1854°
argument of perigee: 9.8278°
revolutions per day: 14.39092924
mean anomaly at epoch: 350.3293°
orbit number at epoch: 18639

The dashed part of the orbit path shows where the satellite is in the earth's shadow,  

DLR